• In Czech Republic
  • List of Countries
  • For 7 days
  • Water Temperature
  • Satellite Maps
  • Weather Map
  • Weather Widgets
  • user-avatar
    Login

    Hourly Weather Graz

    Today, 19 October, Thursday

    Time Temperature Precipitation Wind Pressure Humidity
    00:00 +11°C° 0 mm 1 mps 724 mmHg 77%
    01:00 +11°C° 0 mm 1 mps 724 mmHg 73%
    02:00 +11°C° 0 mm 1 mps 724 mmHg 74%
    03:00 +11°C° 0 mm 1 mps 724 mmHg 74%
    04:00 +11°C° 0 mm 1 mps 724 mmHg 74%
    05:00 +11°C° 0 mm 1 mps 724 mmHg 73%
    06:00 +11°C° 0 mm 1 mps 724 mmHg 73%
    07:00 +10°C° 0 mm 1 mps 724 mmHg 67%
    08:00 +13°C° 0 mm 1 mps 724 mmHg 60%
    09:00 +15°C° 0 mm 0 mps 725 mmHg 52%
    10:00 +18°C° 0 mm 0 mps 725 mmHg 45%
    11:00 +19°C° 0 mm 0 mps 725 mmHg 43%
    12:00 +22°C° 0 mm 1 mps 725 mmHg 41%
    13:00 +22°C° 0 mm 1 mps 725 mmHg 41%
    14:00 +21°C° 0 mm 1 mps 725 mmHg 46%
    15:00 +20°C° 0 mm 1 mps 724 mmHg 52%
    16:00 +20°C° 0 mm 1 mps 724 mmHg 57%
    17:00 +16°C° 0 mm 1 mps 724 mmHg 63%
    18:00 +14°C° 0 mm 1 mps 724 mmHg 69%
    19:00 +11°C° 0 mm 0 mps 724 mmHg 75%
    20:00 +12°C° 0 mm 1 mps 724 mmHg 75%
    21:00 +12°C° 0 mm 1 mps 724 mmHg 76%
    22:00 +11°C° 0 mm 1 mps 725 mmHg 77%
    23:00 +11°C° 0 mm 1 mps 724 mmHg 77%

    Tomorrow, 20 October, Friday

    Time Temperature Precipitation Wind Pressure Humidity
    00:00 +11°C° 0 mm 1 mps 724 mmHg 78%
    01:00 +11°C° 0 mm 1 mps 724 mmHg 78%
    02:00 +10°C° 0 mm 1 mps 724 mmHg 77%
    03:00 +10°C° 0 mm 1 mps 724 mmHg 77%
    04:00 +10°C° 0 mm 1 mps 724 mmHg 77%
    05:00 +10°C° 0 mm 1 mps 724 mmHg 76%
    06:00 +10°C° 0 mm 1 mps 724 mmHg 75%
    07:00 +10°C° 0 mm 1 mps 725 mmHg 75%
    08:00 +13°C° 0 mm 1 mps 725 mmHg 67%
    09:00 +15°C° 0 mm 1 mps 725 mmHg 58%
    10:00 +19°C° 0 mm 1 mps 725 mmHg 50%
    11:00 +20°C° 0 mm 1 mps 725 mmHg 48%
    12:00 +21°C° 0 mm 1 mps 725 mmHg 46%
    13:00 +22°C° 0 mm 1 mps 725 mmHg 43%
    14:00 +21°C° 0 mm 1 mps 725 mmHg 49%
    15:00 +21°C° 0 mm 1 mps 725 mmHg 54%
    16:00 +20°C° 0 mm 1 mps 725 mmHg 59%
    17:00 +18°C° 0 mm 1 mps 725 mmHg 65%
    18:00 +15°C° 0 mm 1 mps 725 mmHg 71%
    19:00 +13°C° 0 mm 1 mps 726 mmHg 77%
    20:00 +13°C° 0 mm 1 mps 726 mmHg 78%
    21:00 +13°C° 0 mm 1 mps 726 mmHg 79%
    22:00 +12°C° 0 mm 1 mps 726 mmHg 81%
    23:00 +12°C° 0 mm 1 mps 726 mmHg 80%

    Day after tomorrow, 21 October, Saturday

    Time Temperature Precipitation Wind Pressure Humidity
    00:00 +12°C° 0 mm 1 mps 726 mmHg 80%
    01:00 +11°C° 0 mm 1 mps 726 mmHg 80%
    02:00 +11°C° 0 mm 1 mps 726 mmHg 79%
    03:00 +11°C° 0 mm 1 mps 726 mmHg 78%
    04:00 +11°C° 0 mm 1 mps 726 mmHg 76%
    05:00 +11°C° 0 mm 1 mps 726 mmHg 75%
    06:00 +11°C° 0 mm 1 mps 726 mmHg 74%
    07:00 +12°C° 0 mm 1 mps 726 mmHg 72%
    08:00 +14°C° 0 mm 1 mps 726 mmHg 65%
    09:00 +16°C° 0 mm 1 mps 727 mmHg 58%
    10:00 +18°C° 0 mm 0 mps 727 mmHg 51%
    11:00 +21°C° 0 mm 1 mps 726 mmHg 48%
    12:00 +22°C° 0 mm 1 mps 726 mmHg 45%
    13:00 +23°C° 0 mm 1 mps 726 mmHg 43%
    14:00 +22°C° 0 mm 1 mps 725 mmHg 49%
    15:00 +21°C° 0 mm 1 mps 725 mmHg 54%
    16:00 +20°C° 0 mm 1 mps 725 mmHg 60%
    17:00 +18°C° 0 mm 1 mps 725 mmHg 66%
    18:00 +15°C° 0 mm 1 mps 725 mmHg 71%
    19:00 +13°C° 0 mm 1 mps 725 mmHg 77%
    20:00 +13°C° 0 mm 1 mps 725 mmHg 78%
    21:00 +13°C° 0 mm 1 mps 724 mmHg 78%
    22:00 +13°C° 0 mm 1 mps 724 mmHg 79%
    23:00 +12°C° 0 mm 1 mps 724 mmHg 79%

    22 October, Sunday

    Time Temperature Precipitation Wind Pressure Humidity
    00:00 +12°C° 0 mm 1 mps 724 mmHg 79%
    01:00 +12°C° 0 mm 1 mps 724 mmHg 79%
    02:00 +12°C° 0 mm 1 mps 724 mmHg 79%
    03:00 +12°C° 0 mm 1 mps 724 mmHg 79%
    04:00 +12°C° 0 mm 1 mps 724 mmHg 79%
    05:00 +12°C° 0 mm 1 mps 724 mmHg 79%
    06:00 +12°C° 0 mm 1 mps 724 mmHg 80%
    07:00 +12°C° 0 mm 1 mps 724 mmHg 80%
    08:00 +13°C° 0 mm 1 mps 724 mmHg 76%
    09:00 +15°C° 0 mm 1 mps 724 mmHg 72%
    10:00 +16°C° 0 mm 1 mps 724 mmHg 67%
    11:00 +16°C° 0.2 mm 1 mps 723 mmHg 70%
    12:00 +16°C° 0.2 mm 2 mps 723 mmHg 73%
    13:00 +16°C° 0.2 mm 2 mps 723 mmHg 76%
    14:00 +14°C° 2.7 mm 2 mps 722 mmHg 82%
    15:00 +13°C° 2.7 mm 2 mps 722 mmHg 88%
    16:00 +12°C° 2.7 mm 2 mps 722 mmHg 94%
    17:00 +12°C° 2.4 mm 2 mps 722 mmHg 94%
    18:00 +10°C° 2.4 mm 2 mps 722 mmHg 94%
    19:00 +10°C° 2.4 mm 3 mps 722 mmHg 94%
    20:00 +9°C° 2.6 mm 2 mps 722 mmHg 93%
    21:00 +9°C° 2.6 mm 2 mps 722 mmHg 92%
    22:00 +9°C° 2.6 mm 2 mps 722 mmHg 92%
    23:00 +8°C° 0.4 mm 2 mps 722 mmHg 91%

    23 October, Monday

    Time Temperature Precipitation Wind Pressure Humidity
    00:00 +8°C° 0.4 mm 3 mps 722 mmHg 89%
    01:00 +8°C° 0.4 mm 3 mps 722 mmHg 88%
    02:00 +8°C° 0.2 mm 3 mps 722 mmHg 88%
    03:00 +8°C° 0.2 mm 3 mps 722 mmHg 87%
    04:00 +8°C° 0.2 mm 3 mps 722 mmHg 87%
    05:00 +7°C° 0.2 mm 3 mps 722 mmHg 86%
    06:00 +7°C° 0.2 mm 3 mps 722 mmHg 86%
    07:00 +7°C° 0.2 mm 3 mps 722 mmHg 86%
    08:00 +8°C° 0.1 mm 3 mps 722 mmHg 83%
    09:00 +8°C° 0.1 mm 3 mps 722 mmHg 81%
    10:00 +8°C° 0.1 mm 3 mps 722 mmHg 79%
    11:00 +9°C° 0.2 mm 3 mps 722 mmHg 78%
    12:00 +8°C° 0.2 mm 4 mps 722 mmHg 77%
    13:00 +8°C° 0.2 mm 4 mps 722 mmHg 76%
    14:00 +8°C° 0.1 mm 4 mps 722 mmHg 77%
    15:00 +9°C° 0.1 mm 3 mps 723 mmHg 78%
    16:00 +8°C° 0.1 mm 3 mps 723 mmHg 79%
    17:00 +8°C° 0 mm 3 mps 723 mmHg 79%
    18:00 +8°C° 0 mm 3 mps 724 mmHg 80%
    19:00 +8°C° 0 mm 3 mps 724 mmHg 81%
    20:00 +8°C° 0 mm 3 mps 724 mmHg 81%
    21:00 +8°C° 0 mm 3 mps 725 mmHg 81%
    22:00 +8°C° 0 mm 3 mps 725 mmHg 81%
    23:00 +8°C° 0 mm 3 mps 725 mmHg 81%

    24 October, Tuesday

    Time Temperature Precipitation Wind Pressure Humidity
    00:00 +8°C° 0 mm 3 mps 725 mmHg 80%
    01:00 +8°C° 0 mm 3 mps 726 mmHg 80%
    02:00 +8°C° 0 mm 3 mps 726 mmHg 81%
    03:00 +8°C° 0 mm 3 mps 726 mmHg 81%
    04:00 +8°C° 0 mm 3 mps 727 mmHg 82%
    05:00 +7°C° 0 mm 3 mps 727 mmHg 83%
    06:00 +7°C° 0 mm 3 mps 727 mmHg 84%
    07:00 +7°C° 0 mm 3 mps 728 mmHg 85%
    08:00 +9°C° 0 mm 3 mps 728 mmHg 77%
    09:00 +10°C° 0 mm 3 mps 728 mmHg 70%
    10:00 +12°C° 0 mm 4 mps 728 mmHg 62%
    11:00 +13°C° 0 mm 4 mps 728 mmHg 60%
    12:00 +13°C° 0 mm 4 mps 728 mmHg 57%
    13:00 +14°C° 0 mm 4 mps 728 mmHg 55%
    14:00 +13°C° 0 mm 3 mps 728 mmHg 59%
    15:00 +14°C° 0 mm 2 mps 728 mmHg 63%
    16:00 +13°C° 0 mm 2 mps 728 mmHg 68%
    17:00 +12°C° 0 mm 2 mps 728 mmHg 74%
    18:00 +9°C° 0 mm 2 mps 729 mmHg 80%
    19:00 +8°C° 0 mm 2 mps 729 mmHg 86%
    20:00 +8°C° 0 mm 2 mps 729 mmHg 87%
    21:00 +8°C° 0 mm 2 mps 729 mmHg 88%
    22:00 +8°C° 0 mm 2 mps 730 mmHg 89%
    23:00 +8°C° 0.1 mm 2 mps 730 mmHg 90%
    Show more